Wetbulb
48.98 49.27 49.02 48.49 48.24 47.88 48.03 48.91 50.66 52.62 53.76 54.36 54.86 55.71 56.58 57.21 58.13 59.71 60.47 60.71 60.93 60.64
46.73 48.06 48.83 48.56 48.37 48.06 48.57 49.72 50.43 52.32 53.81 54.67 54.93 55.58 55.93 56.01 55.93 57.37 58.93 59.50 59.67 60.11
47.15 47.03 47.26 48.11 47.53 47.52 48.31 49.14 50.17 51.69 53.36 53.91 54.49 55.01 55.35 55.27 55.73 55.82 57.52 58.79 58.56 58.85
44.99 46.61 47.56 47.25 47.13 47.71 48.44 48.88 49.42 50.64 51.80 52.66 53.32 54.22 54.64 54.49 54.87 55.46 56.10 57.10 58.24 58.46
42.29 44.22 45.81 46.06 46.65 47.83 48.05 49.09 49.39 51.06 51.29 52.25 52.76 53.33 53.65 53.69 54.76 54.64 55.14 55.28 55.53 57.29
39.56 41.35 43.15 45.28 46.80 47.71 48.24 48.50 49.07 50.58 51.15 51.71 52.44 52.15 52.43 52.66 53.18 53.91 54.77 55.62 55.82 56.49
38.05 39.97 41.52 44.45 46.39 48.92 48.39 48.41 48.64 49.36 49.88 51.40 52.29 53.32 52.82 52.73 52.48 52.80 53.27 54.69 55.42 55.85
38.08 39.95 42.46 45.05 46.36 50.11 49.31 49.21 49.60 49.98 51.07 51.26 52.06 52.40 52.07 52.55 52.49 52.38 52.62 53.36 55.36 56.49
37.71 39.13 42.34 46.68 49.05 46.55 46.08 46.69 46.01 46.06 46.01 45.00 48.05 45.58 47.43 49.33 52.06 52.61 52.43 52.40 52.99 54.85
36.81 37.57 39.69 41.61 41.43 41.30 41.38 41.83 41.15 41.45 41.45 40.95 41.53 44.46 46.16 48.15 50.16 51.74 52.27 52.38 52.31 52.49
35.72 36.30 37.92 38.66 38.57 38.14 38.19 37.83 37.92 38.08 38.72 39.26 40.48 43.05 44.76 47.29 48.71 50.21 47.95 48.39 48.78 48.29
34.38 35.08 35.64 36.28 36.92 37.25 36.65 36.11 35.87 35.96 36.46 36.83 39.00 41.79 43.34 46.89 47.43 43.62 43.25 43.93 44.71 44.93
32.66 32.70 33.42 34.95 36.18 36.57 36.09 35.59 35.29 33.88 33.43 36.20 36.54 40.78 41.57 43.50 43.06 40.92 40.81 41.45 42.79 44.03
31.01 31.37 31.19 32.07 32.80 34.32 35.07 35.23 34.51 33.57 33.38 33.24 35.57 37.20 40.91 40.78 38.91 38.69 37.90 38.15 38.98 40.36
MSLP
1008.88 1008.55 1008.28 1008.19 1008.23 1008.27 1008.39 1008.20 1007.84 1007.85 1007.67 1007.69 1007.72 1007.94 1008.16 1008.43 1008.81 1009.04 1009.29 1009.78 1010.10 1010.56
1008.75 1008.11 1007.73 1007.48 1007.50 1007.54 1007.47 1007.19 1007.03 1007.07 1006.90 1006.80 1006.94 1007.18 1007.32 1007.70 1008.01 1008.38 1008.78 1009.00 1009.40 1009.92
1008.81 1007.75 1006.94 1006.87 1006.86 1006.81 1006.66 1006.60 1006.47 1006.29 1006.08 1006.08 1006.19 1006.42 1006.76 1006.96 1007.34 1008.00 1008.22 1008.48 1008.89 1009.18
1008.71 1007.67 1006.49 1006.08 1005.91 1006.02 1005.89 1005.76 1005.76 1005.63 1005.49 1005.50 1005.61 1005.77 1006.07 1006.36 1006.74 1007.34 1007.77 1007.87 1008.15 1008.57
1008.82 1007.79 1006.58 1005.88 1005.39 1005.29 1005.19 1005.02 1004.85 1004.92 1005.03 1004.74 1005.06 1005.16 1005.42 1005.82 1006.16 1006.62 1007.12 1007.34 1007.63 1008.08
1008.86 1007.73 1006.63 1006.17 1005.44 1004.89 1004.53 1004.26 1004.15 1004.67 1005.85 1004.76 1004.64 1004.98 1005.20 1005.37 1005.65 1005.85 1006.19 1006.58 1006.74 1007.16
1008.73 1007.65 1006.89 1006.08 1005.44 1004.85 1004.15 1003.90 1003.56 1003.95 1004.05 1003.95 1003.97 1004.16 1004.44 1004.77 1005.08 1005.34 1005.52 1005.87 1006.06 1006.36
1008.99 1007.81 1006.67 1005.77 1005.32 1004.71 1004.04 1003.80 1003.69 1003.72 1003.88 1003.96 1003.95 1004.28 1004.36 1004.25 1004.45 1004.72 1005.02 1005.25 1005.44 1005.68
1009.33 1008.19 1006.95 1005.77 1005.34 1005.18 1005.12 1004.96 1004.93 1005.12 1005.30 1005.31 1005.07 1005.31 1004.89 1004.71 1004.29 1004.35 1004.71 1004.87 1005.06 1005.17
1009.81 1009.00 1008.21 1007.35 1006.56 1006.39 1006.34 1006.18 1006.25 1006.28 1006.11 1005.93 1005.76 1005.17 1004.68 1004.53 1004.24 1004.20 1004.26 1004.48 1004.75 1005.04
1010.57 1009.79 1009.04 1008.40 1007.81 1007.45 1007.22 1007.18 1007.12 1007.11 1006.96 1006.62 1006.24 1005.50 1004.68 1004.03 1004.05 1004.13 1004.46 1004.62 1004.77 1004.98
1011.39 1010.68 1009.75 1009.31 1008.83 1008.65 1008.25 1008.02 1008.08 1008.03 1007.68 1007.34 1006.81 1005.97 1004.64 1003.59 1003.83 1004.48 1004.94 1005.33 1005.22 1005.55
1011.98 1011.50 1010.81 1010.31 1009.88 1009.68 1009.40 1009.21 1008.83 1008.47 1008.30 1007.93 1007.44 1006.34 1005.15 1004.12 1004.08 1004.68 1005.33 1005.92 1005.98 1006.01
1012.41 1012.01 1011.64 1011.14 1010.67 1010.26 1009.96 1009.79 1009.61 1009.36 1009.00 1008.59 1008.07 1007.30 1006.35 1005.69 1005.49 1005.65 1006.06 1006.43 1006.74 1006.65
Wind_Speed
10 8 9 11 10 9 10 11 13 13 14 15 14 10 10 9 10 11 11 13 11 10
11 9 9 10 9 9 11 11 13 15 15 14 14 12 11 9 8 9 11 11 10 8
14 12 8 9 10 10 11 12 13 13 15 14 13 12 11 10 8 9 9 9 10 11
13 14 12 9 8 11 11 11 11 14 14 13 11 12 11 11 9 12 10 9 11 12
13 13 10 9 10 10 11 10 12 12 11 11 10 10 12 11 11 12 12 10 7 10
14 12 11 10 8 9 9 10 8 4 16 10 6 7 7 8 9 10 10 11 11 11
14 14 12 11 9 9 7 7 7 6 7 6 7 8 8 8 8 7 7 8 8 10
15 14 12 10 7 6 6 5 4 4 5 5 5 2 5 8 8 9 9 7 8 10
15 15 14 9 4 7 10 11 10 8 7 7 5 15 10 6 6 8 8 7 7 7
13 14 14 12 12 12 11 9 10 9 8 8 8 20 15 12 5 5 6 6 5 4
13 12 12 12 11 11 8 10 9 9 10 9 9 21 17 12 5 3 4 4 4 5
11 11 11 12 11 10 10 10 10 9 10 11 11 22 21 7 8 9 9 6 8 6
10 10 10 8 7 8 7 8 7 9 9 14 10 24 24 13 8 11 7 8 8 18
8 7 9 8 8 5 3 3 5 7 8 11 14 16 24 23 10 8 8 7 7 9
Wind_Direction
254 249 244 238 232 237 242 246 249 245 235 231 227 211 208 207 219 216 213 221 223 226
293 243 245 243 235 236 242 248 249 245 233 228 223 216 207 214 214 222 221 217 209 203
314 278 231 231 233 232 240 241 253 258 235 227 220 212 207 216 213 215 219 216 209 211
318 316 268 235 238 243 249 247 249 255 246 235 217 213 208 211 210 219 220 212 209 216
319 315 327 263 237 231 232 238 244 250 259 217 214 208 205 205 209 216 216 208 197 217
323 319 325 309 295 246 235 238 248 208 243 232 203 198 210 209 214 205 210 208 204 211
328 329 318 307 302 298 246 236 254 245 236 228 224 208 208 204 202 205 199 203 201 209
334 333 321 304 305 319 301 276 266 281 302 268 242 291 255 208 196 202 214 212 206 216
347 348 347 353 1 36 39 35 43 43 29 22 13 357 331 313 227 204 205 219 220 216
357 3 5 15 38 39 38 46 46 39 32 28 10 352 332 288 255 231 217 214 209 203
3 12 12 22 36 43 43 47 46 37 29 24 10 355 334 292 222 140 98 95 98 104
357 7 12 27 26 30 35 40 37 32 26 20 13 9 357 286 133 106 87 73 90 82
353 8 2 10 32 41 38 40 35 30 16 16 12 21 25 35 106 100 88 78 59 70
4 5 1 2 11 13 42 69 55 44 25 20 14 20 35 44 50 70 80 69 56 64